Theta_e
298 299 300 300 298 298 298 298 298 298 297 297 297 297 297 298 297 299 299 301 304 303 304 305 307 306 307 304 303 303 303 303 304 305 306 306 306 305 310 309 307 307 305 305 306 309 309 301 301 304 300 299 299 297
300 301 301 301 301 302 299 299 299 298 298 297 298 298 298 298 298 299 299 300 303 302 303 304 303 304 307 303 303 304 305 304 304 305 305 304 307 306 309 313 307 307 305 304 304 301 298 299 299 300 298 296 294 292
301 301 305 306 306 302 300 298 298 299 298 298 298 298 298 299 299 299 299 301 302 302 300 300 302 303 304 305 304 304 304 303 305 304 306 307 307 307 309 307 306 304 303 301 299 297 298 298 298 297 296 294 291 289
301 300 301 303 302 299 298 300 299 299 299 298 299 299 299 299 299 299 299 303 301 300 302 302 301 302 303 304 305 304 304 304 305 305 304 304 306 306 304 305 305 301 300 300 298 296 296 296 296 294 293 292 290 288
300 301 300 300 300 300 300 300 300 299 299 299 299 299 299 299 299 300 298 303 303 302 302 302 301 301 303 305 305 306 305 304 304 304 304 304 303 302 299 302 300 299 297 297 296 295 295 293 293 293 292 291 290 288
298 300 301 300 299 300 300 300 300 299 299 299 299 299 299 300 300 300 300 303 301 300 298 300 300 302 302 303 304 305 305 305 304 304 302 302 303 303 300 300 299 299 298 296 296 295 293 293 291 292 291 291 290 288
298 298 300 301 301 301 301 300 300 300 299 300 299 300 300 300 301 302 301 301 301 300 300 301 301 301 303 304 303 303 304 304 304 304 302 302 303 301 302 297 295 298 293 295 293 293 293 292 291 291 291 291 290 289
297 298 298 299 300 301 300 301 301 301 301 301 300 301 301 300 300 300 301 300 300 301 302 301 302 301 301 301 301 301 301 301 301 303 302 302 299 299 296 298 294 295 295 293 292 294 292 292 291 291 291 290 289 288
296 297 297 298 299 299 300 301 301 301 301 301 300 299 299 300 300 300 300 300 301 302 300 300 301 301 300 301 300 300 300 299 299 300 302 301 298 299 297 297 294 295 296 294 294 292 292 292 292 291 291 289 288 286
295 296 297 297 298 298 299 300 299 299 299 299 300 298 297 299 300 301 302 300 302 301 302 301 300 301 302 300 301 299 299 300 300 299 300 298 297 301 300 296 295 294 296 294 293 292 292 292 291 291 290 289 287 285
294 295 297 297 297 298 299 299 299 299 300 299 299 298 298 300 302 301 300 301 301 301 301 300 300 302 301 300 299 299 298 298 300 300 299 299 298 297 297 295 294 294 295 295 292 292 291 291 291 291 290 289 287 285
294 294 294 297 298 298 298 299 299 299 300 299 300 301 301 302 301 300 300 300 301 300 300 300 300 301 301 301 299 299 300 298 300 299 297 297 301 299 297 297 295 296 295 295 294 292 292 292 291 291 290 288 284 282
292 293 293 295 296 298 298 298 299 299 299 300 300 299 299 298 298 298 298 301 299 298 298 298 300 300 300 300 297 298 298 296 299 292 297 299 298 299 297 295 294 294 293 293 291 292 292 291 291 288 283 282 281 279
291 292 293 294 297 298 299 300 300 301 301 299 297 295 298 299 297 302 300 299 297 298 300 299 298 298 295 297 296 295 298 297 295 295 303 300 298 295 294 293 293 292 291 290 288 290 288 285 283 282 282 281 281 278
291 291 293 294 295 298 299 299 299 299 300 297 298 298 297 297 298 298 299 299 299 297 298 298 298 298 296 296 297 296 298 295 297 299 300 296 295 293 293 291 289 288 288 288 287 285 283 283 282 280 280 281 281 278
291 291 290 294 296 297 297 297 297 298 298 297 298 297 297 300 301 301 300 299 299 297 296 298 298 295 297 297 299 296 299 299 301 298 296 295 295 294 292 289 288 288 288 286 285 284 283 282 281 279 279 279 278 278
292 292 292 294 296 297 298 297 297 296 297 298 299 296 297 298 299 299 299 298 298 297 296 298 297 299 297 298 300 298 298 298 296 294 293 293 294 293 290 288 288 287 286 285 283 282 281 281 279 278 277 276 277 276
292 293 293 294 296 296 296 297 295 296 298 297 297 297 296 297 298 297 296 295 297 297 297 299 298 300 295 300 296 297 295 293 292 292 291 293 292 292 290 289 288 287 285 284 282 281 280 279 278 278 277 276 276 276
292 293 294 295 295 296 293 295 296 296 297 297 296 295 295 296 295 292 293 295 298 299 297 298 299 298 299 298 297 295 294 293 292 290 290 290 291 290 290 289 288 287 285 283 282 281 279 280 279 278 277 277 276 276
292 293 294 294 295 295 294 293 295 295 296 296 295 295 295 296 292 295 294 294 295 296 299 299 300 299 298 296 295 293 293 291 289 290 289 288 289 289 288 288 286 286 284 283 283 281 280 281 280 278 278 278 278 277
292 293 293 294 293 294 294 294 295 294 294 293 293 295 296 295 293 294 293 294 296 297 296 295 296 293 292 294 295 294 293 293 293 292 290 288 288 288 287 287 285 284 283 283 282 282 282 282 281 279 279 280 279 278
292 293 293 293 292 293 292 293 294 294 294 295 295 295 296 295 295 291 292 295 298 296 296 295 294 291 292 292 291 294 292 292 292 291 290 288 289 287 288 286 285 284 284 283 282 282 282 282 281 280 279 281 280 280
291 292 292 293 289 289 290 293 293 294 294 294 295 295 294 294 293 292 294 297 295 293 293 292 293 293 291 292 292 292 293 293 291 290 290 290 290 289 288 287 287 286 285 285 284 283 283 282 281 280 282 282 281 280
290 291 288 289 290 289 290 290 292 292 293 294 294 294 293 293 292 294 298 297 294 291 290 291 293 291 291 292 291 290 290 291 291 290 290 289 288 288 288 287 288 288 287 286 285 284 283 282 282 283 281 280 280 279
286 286 287 285 289 287 288 289 289 292 290 293 292 292 293 293 293 292 295 295 292 290 289 290 291 292 292 290 289 288 288 290 289 288 289 289 287 286 286 287 287 287 287 286 284 284 283 282 283 282 280 280 279 278
285 287 288 289 288 289 291 288 289 290 290 289 291 292 290 292 290 293 294 291 291 289 289 289 290 290 289 290 289 288 287 288 288 287 286 287 287 286 285 285 285 285 287 286 285 284 283 283 282 281 280 279 279 276
285 287 291 290 291 292 289 290 291 289 288 288 289 289 287 287 289 293 290 288 288 287 287 287 288 288 288 287 286 285 285 287 286 284 284 284 285 286 285 285 285 284 285 285 285 284 283 282 282 281 280 278 277 276
289 290 287 291 291 290 288 288 288 288 290 293 290 288 288 290 292 290 287 286 286 286 285 285 286 287 286 285 285 283 283 283 283 282 282 281 282 283 284 285 285 284 283 284 284 283 282 282 280 278 277 276 275 275
288 289 290 290 290 291 289 290 291 290 289 290 289 292 292 289 288 287 286 285 285 286 286 285 284 284 284 284 284 284 283 283 282 280 277 276 280 281 281 282 282 282 283 283 282 282 281 280 278 277 276 274 273 273
289 289 289 286 285 289 291 289 291 289 288 289 287 288 287 287 284 284 284 284 285 286 286 287 285 285 285 284 284 283 284 284 285 285 282 275 280 280 280 281 281 281 281 280 278 277 278 277 276 275 273 272 271 269
289 289 289 288 288 290 289 287 287 287 287 288 289 289 290 285 281 278 279 279 280 282 283 284 285 285 286 286 284 284 283 283 283 283 284 281 280 279 279 279 279 279 278 278 277 276 275 274 273 271 270 269 268 267
289 290 292 291 292 289 288 288 288 289 290 290 289 289 288 288 286 277 276 278 280 281 282 281 282 285 284 284 284 284 284 282 281 280 280 279 279 278 278 277 277 277 276 275 275 274 273 271 269 268 267 266 265 264
289 290 288 288 290 290 288 285 289 290 290 287 288 285 286 284 281 276 277 276 276 277 278 278 279 280 281 281 281 281 281 281 280 279 279 278 278 276 275 275 275 274 274 273 272 271 270 269 267 266 266 265 264 263
Wind_Speed
33 44 48 55 62 62 60 56 53 55 64 66 57 54 53 49 49 44 31 26 9 3 1 6 7 7 7 8 9 9 5 3 2 5 4 4 3 4 4 5 7 8 6 4 4 4 7 3 4 4 3 4 7 13
18 25 32 38 44 46 58 53 53 54 61 67 61 57 53 48 47 42 18 29 13 2 1 4 2 19 21 8 8 9 5 7 4 4 3 3 1 1 3 2 6 4 5 4 4 2 1 2 3 1 4 5 3 8
28 34 15 8 24 41 50 50 45 53 64 63 60 56 51 46 45 44 24 24 10 3 3 4 4 14 12 20 28 4 2 6 5 5 3 2 2 1 1 4 4 1 1 3 3 4 5 3 3 5 7 10 10 13
39 45 44 45 45 54 51 49 51 56 59 57 55 51 47 43 43 43 29 20 12 4 3 2 5 6 3 12 14 8 6 9 5 4 2 2 2 2 0 1 3 4 5 6 2 4 4 2 6 9 11 14 14 13
44 44 46 51 50 46 49 52 50 53 55 52 51 48 45 42 42 38 35 18 18 5 3 2 5 2 4 10 14 15 11 5 3 2 2 2 2 3 1 2 2 2 5 4 5 10 5 6 9 13 14 13 13 15
50 46 44 42 42 44 47 49 50 51 52 49 47 47 44 42 43 28 4 7 17 13 4 3 3 3 12 7 7 6 4 2 3 3 2 2 1 2 2 2 2 3 1 2 3 9 4 13 11 12 14 13 15 14
50 50 51 48 48 48 47 48 49 51 52 49 48 47 50 48 38 6 3 19 20 13 3 3 2 4 12 9 1 2 1 2 3 2 2 3 2 3 1 2 2 4 3 5 13 14 9 11 7 11 15 16 19 18
49 49 50 50 52 54 51 52 53 55 56 54 53 51 47 34 25 13 25 34 29 6 4 3 3 3 3 2 2 1 1 1 2 2 2 3 2 1 2 4 4 6 8 9 7 0 9 11 15 12 17 18 13 12
48 45 45 46 46 48 53 56 56 58 58 56 55 42 30 21 4 10 28 28 15 5 4 3 4 3 1 3 2 2 2 2 2 1 2 4 2 3 6 10 9 8 8 9 6 10 12 15 13 13 13 14 13 9
42 42 40 39 40 39 41 45 54 60 56 47 36 5 3 6 31 21 7 2 4 3 2 3 3 3 5 2 2 3 1 3 1 3 2 2 2 3 6 7 8 8 8 10 11 12 13 13 12 13 14 12 12 14
40 39 38 34 32 32 31 35 42 39 27 5 2 3 13 11 3 3 2 3 2 2 2 2 6 7 3 4 3 2 2 1 2 3 4 2 1 2 8 8 7 7 7 9 12 8 12 12 11 9 11 14 18 19
35 37 36 31 28 27 24 20 18 13 6 12 15 11 5 2 2 4 1 1 3 4 2 5 5 4 2 4 3 1 2 3 1 1 3 2 1 6 7 9 8 7 7 7 15 12 14 15 16 13 14 13 17 23
31 31 32 31 27 25 24 26 30 28 25 8 6 4 3 3 5 4 4 2 3 1 2 3 4 4 3 3 2 3 3 2 2 3 3 2 3 5 6 6 6 8 10 10 12 16 18 14 15 14 16 22 27 26
30 29 29 28 25 22 18 15 15 12 8 3 4 5 3 3 2 1 2 3 3 5 7 5 3 3 2 3 1 4 2 2 1 1 2 2 4 4 5 5 9 5 8 8 9 14 14 17 17 20 25 26 27 23
25 29 28 28 20 17 16 15 13 9 5 4 4 4 4 1 1 2 2 5 5 4 4 3 4 3 2 3 2 3 1 3 4 2 2 1 6 6 7 7 8 8 8 8 13 14 16 19 19 17 22 24 24 24
14 17 29 21 19 13 10 15 14 5 4 3 6 4 1 4 5 5 6 4 3 2 3 4 3 3 0 4 2 4 5 1 2 2 1 2 4 5 7 6 6 12 12 13 14 16 17 17 18 18 19 21 22 25
21 15 22 15 17 20 11 6 6 5 4 4 3 2 2 2 5 4 3 2 2 3 1 3 3 2 1 1 2 3 2 2 2 2 1 1 4 7 8 8 11 14 14 15 16 16 16 19 22 20 15 17 21 22
13 23 20 18 8 10 15 10 4 5 6 5 4 4 3 3 3 3 3 3 3 1 2 2 3 2 2 2 1 2 2 2 3 3 2 2 5 10 13 11 13 15 15 16 16 18 19 19 15 13 17 19 18 18
18 24 20 17 10 5 4 7 6 4 5 2 2 2 2 2 2 2 2 4 3 2 2 2 4 2 2 2 3 3 3 2 2 2 2 5 8 10 12 14 15 14 17 17 16 14 15 15 15 17 19 19 16 17
16 20 22 19 8 4 4 3 6 4 3 2 2 2 2 1 2 2 3 3 3 2 4 3 3 2 2 1 2 4 4 5 5 4 2 2 7 11 10 10 10 15 15 16 14 15 14 12 16 19 20 19 20 20
19 21 17 13 7 12 4 3 4 2 2 3 1 2 1 2 2 3 3 4 4 3 2 2 3 2 5 5 12 11 5 4 2 3 3 3 7 9 9 11 15 12 12 11 11 11 14 13 18 22 23 20 21 23
12 16 8 11 6 5 4 9 3 2 3 2 2 2 2 2 2 2 4 3 3 2 2 2 2 2 3 4 5 11 9 12 13 13 14 15 5 4 6 12 12 9 11 12 13 13 15 17 22 22 23 19 20 20
12 8 7 8 5 5 2 7 3 3 3 2 2 3 2 1 2 3 1 2 2 2 6 5 6 11 8 10 10 9 8 8 8 10 11 11 12 13 14 15 14 11 10 14 16 18 16 22 22 22 20 25 25 24
8 5 4 3 4 2 1 3 2 2 3 2 2 3 2 2 2 1 2 3 2 2 4 6 4 2 3 5 3 6 10 9 8 6 9 13 8 9 12 12 10 12 14 17 18 18 19 24 25 22 24 23 22 21
5 7 4 4 3 4 3 3 4 3 2 1 2 2 2 1 1 2 2 2 2 3 2 5 5 3 3 2 4 8 9 6 8 2 9 9 15 13 11 9 8 10 15 19 19 18 20 24 21 21 23 23 21 21
5 4 4 2 3 3 2 2 2 2 2 2 3 1 1 1 3 2 2 2 2 2 2 2 2 2 4 6 3 4 8 7 14 11 9 7 8 9 8 4 4 3 13 19 21 20 20 20 21 23 23 23 22 25
4 4 2 2 2 2 2 2 2 3 2 2 2 1 2 2 1 2 2 3 2 4 4 3 8 6 5 8 11 11 8 10 11 13 12 10 10 6 11 10 9 8 8 11 20 24 21 21 22 20 21 24 26 25
2 5 3 3 2 2 2 2 1 1 1 2 3 1 2 1 2 2 2 4 5 5 6 5 5 7 9 9 8 7 8 10 11 11 11 11 9 8 7 8 9 8 7 11 18 20 22 22 24 26 26 23 21 19
2 1 2 3 3 2 2 2 2 3 3 1 2 2 2 2 3 3 4 4 3 4 7 6 5 4 5 5 5 4 8 10 9 3 5 3 3 7 8 10 10 11 14 18 19 20 23 27 27 27 26 24 22 20
2 2 2 1 2 1 2 3 2 2 3 2 1 1 2 2 4 5 3 3 3 3 4 3 7 7 7 7 6 5 3 2 4 2 6 3 10 12 14 16 19 22 24 26 28 27 24 25 24 23 23 22 20 18
2 1 2 1 1 2 3 3 2 1 1 1 1 1 1 3 4 10 9 8 6 4 3 3 5 3 4 8 10 8 4 2 1 3 11 19 20 16 15 16 19 21 23 24 24 24 24 23 22 21 20 19 17 16
1 1 2 1 2 2 2 3 2 2 1 2 1 2 2 1 2 2 11 12 12 10 9 14 13 6 7 8 7 8 8 11 11 14 17 21 19 17 15 16 17 18 19 20 20 20 20 21 20 19 19 18 16 16
1 1 2 2 1 1 1 1 2 1 1 1 2 3 3 3 3 1 6 10 8 10 9 9 9 10 11 11 11 12 13 15 16 15 17 18 18 18 19 20 19 20 21 21 20 20 19 20 20 20 19 17 16 15
Wind_Direction
281 274 264 254 243 233 224 217 214 211 204 198 194 193 196 197 196 194 208 209 209 200 298 24 295 177 153 166 161 171 79 319 109 169 194 188 205 233 153 196 172 168 164 186 194 231 244 39 98 198 205 45 138 148
328 302 287 260 238 223 212 202 202 198 197 187 186 188 191 191 191 189 208 208 232 186 356 75 259 21 179 160 125 166 136 154 160 162 203 178 360 35 171 228 169 174 182 176 171 192 146 4 94 113 101 121 92 115
11 356 6 251 196 182 174 174 187 175 172 177 178 181 183 184 184 184 192 187 212 90 2 32 355 5 82 139 144 126 123 184 165 176 163 127 142 154 249 216 109 67 132 113 108 186 172 92 91 80 108 111 109 121
39 46 66 92 118 131 147 156 156 162 165 169 172 174 176 178 181 180 185 196 130 102 106 12 5 4 28 142 155 154 184 166 140 107 104 126 169 42 217 242 117 198 137 129 84 131 110 209 120 121 109 114 119 123
53 64 76 92 104 119 128 141 146 154 158 163 165 167 171 173 174 176 185 224 161 109 133 100 76 46 93 108 149 170 148 117 107 87 106 166 152 75 323 30 166 180 177 161 214 185 161 161 143 134 128 132 133 131
54 71 77 100 105 111 124 137 142 147 152 156 159 163 164 164 160 155 192 165 128 143 107 99 250 277 171 207 164 129 132 127 130 124 140 137 105 107 168 215 146 124 88 339 191 144 120 137 140 140 132 139 139 140
56 63 81 94 100 107 117 127 138 142 145 149 151 152 150 152 155 197 165 145 139 106 77 97 92 262 173 164 128 61 76 177 148 138 107 144 132 141 213 232 188 122 224 97 108 103 112 149 156 141 137 151 151 144
58 64 71 82 96 106 115 118 124 131 130 136 141 140 143 148 129 103 132 137 145 131 109 122 144 130 123 102 101 181 120 72 360 137 96 127 88 129 249 148 149 163 124 133 171 143 146 133 141 146 155 154 150 153
65 66 71 77 84 95 104 112 115 119 123 123 121 122 112 102 80 137 142 163 198 161 138 136 134 155 108 174 116 22 117 49 275 113 158 110 187 209 218 166 172 188 163 167 185 131 143 146 153 159 161 159 158 151
74 78 78 79 85 96 101 107 114 118 122 126 133 110 74 129 140 138 145 36 22 348 85 110 111 142 144 144 160 105 113 154 141 245 98 108 233 179 143 154 165 175 161 160 143 154 156 158 161 164 169 166 149 139
69 70 77 90 94 99 108 121 128 130 138 137 70 61 115 129 100 60 105 130 165 75 50 126 134 131 176 114 152 147 186 190 116 250 128 238 251 173 124 133 157 188 160 171 162 154 162 160 157 160 168 164 149 142
69 67 68 75 88 95 108 120 132 119 96 110 114 114 111 80 72 95 109 4 75 147 178 126 140 130 43 97 100 314 110 43 175 236 77 279 211 134 134 146 164 168 156 164 149 151 153 148 158 159 168 148 133 133
67 66 63 68 73 80 86 95 105 106 109 84 61 57 64 333 58 117 168 83 104 156 146 112 100 120 43 61 49 77 83 195 96 56 212 200 163 132 121 111 110 93 97 99 109 118 129 143 153 143 112 127 134 135
60 61 60 60 69 74 84 85 100 91 62 73 68 41 57 46 33 314 38 113 217 105 110 101 60 111 108 57 130 87 259 83 67 199 165 165 135 115 113 116 112 96 88 99 110 123 114 112 111 125 134 143 144 143
55 51 52 46 53 66 75 78 83 72 65 62 40 61 50 307 319 328 340 89 85 101 82 70 43 72 50 84 108 105 149 206 201 165 108 36 115 115 119 114 112 114 112 106 114 115 120 123 123 122 142 152 158 156
52 38 25 30 43 54 78 79 62 61 63 67 39 51 41 99 60 51 56 60 39 72 76 72 91 73 324 147 108 203 168 137 133 75 100 100 118 128 124 116 118 122 123 123 123 128 130 133 135 134 146 154 164 164
40 25 16 26 40 52 58 69 48 48 55 51 59 354 40 42 59 48 15 346 326 69 79 100 77 176 138 82 102 27 85 98 135 100 54 66 140 135 130 121 125 127 128 129 128 132 130 139 139 135 133 155 161 166
37 19 23 22 31 41 47 38 66 64 53 40 59 34 33 28 24 12 342 339 61 73 45 140 132 101 136 122 50 123 106 75 63 71 71 89 114 133 139 136 138 138 134 136 140 141 143 143 144 148 146 151 150 157
19 22 27 29 37 69 59 22 42 79 53 43 40 23 48 5 2 293 321 353 11 81 100 40 60 65 77 66 88 110 134 153 131 92 56 62 105 118 128 138 146 143 142 144 146 152 159 161 158 154 155 158 157 162
24 28 30 32 64 76 66 21 25 73 55 62 24 31 70 39 295 332 336 358 349 17 36 50 45 43 83 15 83 105 127 119 127 124 97 69 113 123 125 131 132 135 137 143 146 149 157 169 162 160 164 164 159 168
19 13 17 30 54 55 70 56 45 87 90 77 319 47 61 15 2 11 351 331 39 34 71 69 79 45 43 43 123 142 174 165 183 170 150 150 155 137 145 146 144 141 145 150 150 160 170 176 160 168 169 172 175 173
354 14 19 32 58 58 58 5 83 101 75 96 51 32 22 30 12 351 302 26 62 357 48 69 99 128 82 50 56 93 104 101 83 99 120 134 152 154 159 153 155 159 165 171 168 170 185 173 167 172 172 172 169 169
11 27 36 32 61 43 311 313 73 18 93 127 156 109 55 49 308 313 58 89 83 19 55 67 74 101 103 91 80 61 47 122 95 110 145 161 163 167 153 168 178 167 165 177 180 177 180 166 166 167 159 148 146 141
11 52 41 46 56 80 314 9 62 70 30 20 99 98 75 42 300 306 73 65 50 47 30 360 127 98 119 130 71 47 32 78 99 80 118 120 106 122 161 172 180 185 180 173 173 173 165 161 163 155 150 144 142 140
57 346 55 15 355 52 43 33 5 54 114 103 50 86 58 324 346 45 85 86 63 57 14 345 38 69 111 94 98 74 49 90 134 111 76 149 131 128 125 144 164 178 177 163 165 170 160 160 161 152 149 149 147 142
66 326 54 31 338 69 16 64 42 63 70 55 56 48 337 22 52 49 62 23 70 62 26 16 6 111 50 62 86 77 38 56 128 96 75 115 150 155 148 146 135 133 178 181 170 160 156 160 157 150 152 156 153 143
52 18 28 337 357 74 52 33 2 67 63 100 134 134 66 62 124 94 127 31 106 91 77 68 44 49 106 104 94 78 66 106 123 112 110 99 89 145 182 174 162 175 177 171 175 169 161 160 155 153 149 149 155 157
65 26 74 14 33 1 75 56 134 174 278 41 81 118 139 133 79 50 72 101 104 110 105 88 80 95 109 115 112 118 112 110 110 112 106 85 77 79 104 157 173 173 177 180 169 168 161 153 144 138 137 135 142 160
63 11 60 48 13 12 18 21 9 46 329 0 81 34 57 69 23 76 97 110 118 141 150 142 117 118 112 118 124 133 152 156 155 141 111 123 87 89 115 123 127 136 138 138 147 154 152 148 145 143 141 141 145 151
69 341 11 65 83 340 76 1 36 16 2 18 314 320 94 97 74 49 64 58 41 53 53 134 160 182 181 161 146 163 170 143 62 238 157 162 146 131 130 131 131 131 135 134 130 130 146 145 144 141 139 138 140 139
51 25 311 312 51 54 34 344 305 303 300 309 322 288 63 121 92 48 37 16 354 350 344 293 237 212 183 183 169 166 145 113 99 88 145 148 148 146 145 141 141 141 141 142 142 143 143 141 142 142 142 142 144 145
166 236 286 292 90 138 16 1 344 331 270 169 214 147 134 169 123 55 12 23 35 22 51 47 30 96 120 103 127 183 191 158 144 138 140 145 150 153 151 148 150 148 144 142 142 141 143 142 143 142 139 138 142 145
243 311 322 321 293 178 92 323 247 263 195 183 83 20 42 46 84 125 44 32 39 34 36 43 55 72 101 114 120 126 136 144 150 151 152 150 147 142 138 140 144 144 144 140 139 141 140 139 139 141 144 145 145 146